Regional Weather Roundup
Issued by NWS

Home | Current Version | Previous Version | Text Only | Print | Product List | Glossary Off
Versions: 1 2 3 4 5 6 7 8 9 10 11 12 13 14 15 16 17 18 19 20 21 22 23 24 25 26 27 28 29 30 31 32 33 34 35 36 37 38 39 40 41 42 43 44 45 46 47 48 49 50

596
ASUS43 KBIS 120710
RWRND

NORTH DAKOTA REGIONAL WEATHER ROUNDUP
NATIONAL WEATHER SERVICE BISMARCK ND
100 AM CST FRI FEB 12 2016

NOTE: "FAIR" INDICATES FEW OR NO CLOUDS BELOW 12,000 FEET WITH NO
SIGNIFICANT WEATHER AND/OR OBSTRUCTIONS TO VISIBILITY.


NDZ001>003-009>011-017-120800-
NORTHWEST NORTH DAKOTA

CITY           SKY/WX    TMP DP  RH WIND       PRES   REMARKS
WILLISTON      CLOUDY    19  14  81 N10       30.36R WCI   7
MINOT          LGT SNOW  14   5  67 N10       30.36R WCI   1
$$

NDZ018>021-031>035-040>046-120800-
SOUTHWEST NORTH DAKOTA

CITY           SKY/WX    TMP DP  RH WIND       PRES   REMARKS
BISMARCK       CLOUDY    20  14  77 NW6       30.33R WCI  12
DICKINSON      CLOUDY    20  17  88 N7        30.27R WCI  11
GARRISON         N/A     15  12  88 N9        30.32R WCI   3
HETTINGER ARPT CLOUDY    24  20  84 N8        30.27R FOG     WCI  15
$$

NDZ004>008-012>016-024-026-027-054-120800-
NORTHEAST NORTH DAKOTA

CITY           SKY/WX    TMP DP  RH WIND       PRES   REMARKS
GRAND FORKS    CLEAR      7  -2  66 N13       30.34R WCI  -9
GRND FRKS AFB  CLEAR      6  -3  68 N12       30.35R WCI -10
DEVILS LAKE    CLOUDY    -1  -4  87 NW10      30.33R WCI -17
$$

NDZ022-023-025-028>030-036>039-047>053-120800-
SOUTHEAST NORTH DAKOTA

CITY           SKY/WX    TMP DP  RH WIND       PRES   REMARKS
FARGO          CLOUDY    11   4  73 N8        30.32R WCI  -1
JAMESTOWN      FLURRIES  11   6  81 NW9       30.30R WCI  -2
$$





USA.gov is the U.S. government's official web portal to all federal, state and local government web resources and services.